COSMOS 1275 DEB, 42152

Orbit data source: Space-Track

COSMOS 1275 DEB, 42152 is space debris in LEO originally from a launch on Thu, 04 Jun 1981 UTC launched from the Plesetsk Missile And Space Complex (PKMTR). Debris objects in space refer to the collection of defunct objects orbiting the Earth. Examples of debris include non-operational satellites, rocket bodies, and fragments generated from explosions, collisions, or faulty payload assembly.

Loading next visibility...
Identifier
42152, 1981-053RQ
Orbit
LEO
Country
Flag of CISCIS
Related business
Manufacturer
Unknown
Mission
Spacecraft
Bus & Motor
Unknown
Mass
Unknown
Launch date (UTC)
1981-06-04 (45 years ago)
Launch vehicle
Unknown
Launch site
Plesetsk Missile And Space Complex (PKMTR)
Object type
Payload
Rocket body
Debris
Shape & HBR
Unknown shape, 0.1 m
Radar Cross Section
Small (<0.1 m²)

Expand to show TLE details & history
Last TLE update: 3 weeks ago

TLE from 3 weeks ago
0 COSMOS 1275 DEB
1 42152U 81053RQ  26185.94043493  .00002480  00000-0  15484-2 0  9997
2 42152  83.1156  61.9805 0057425 129.7074 230.9182 14.03569481643360
Epoch: 2026-07-04T22:34Z
TLE epoch observation values (Epoch: 2026-07-04T22:34:13.577Z)
Latitude
-0.00001°
Longitude
160.47702°
Altitude
910.835 km
Speed
7.383 km/s
True Right ascension
04h 07m 55s
True Declination
0° 00' 00"
Sunlit
Object was in daylight at epoch
Visualization orbit readout
Latitude
Unknown
Longitude
Unknown
Altitude
Unknown
Speed
Unknown
Apparent Right ascension
Unknown
Apparent Declination
Unknown
Sunlit
N/A
Visualization observer readout
Local Sidereal Time
09:28:25
Azimuth
Unknown
Elevation
Unknown
Doppler factor
Unknown
Orbital elements
Apogee altitude
920.235 km
Perigee altitude
836.892 km
Semi-major axis
7,256.7 km
Eccentricity
0.00574
Inclination
83.1156°
RAAN
61.9805°
Arg. of periapsis
129.7074°
True anomaly
230.40971°
Mean anomaly
230.9182°
Eccentric anomaly
230.66372°
Mean motion
3.51103 °/min
Orbital period
102.53 mins
BSTAR
0.0015484
Loading maneuver chart data...
Computing Atmospheric mass density...
Loading historical data...
Loading historical data...
Loading historical data...
Loading historical data...
Loading historical data...
Loading historical data...
Loading historical data...

Documentation

Showing up to 5 results
|